Погода в Мунгене

Южная Корея     36°35′49″N   128°12′02″E
темп.,
°C
ветер,
м/с
пор.,
м/с
влажн.,
%
обл.,
%
осадки,
мм/ч
давл.,
гПа
погр.,
м
17 апреля, сб
сб1700:00+9зсз2189100 0.0 101813
03:00+8зсз1191100 0.0 101610
06:00+6ююз01880 0.0 101510
09:00+12сз12580 0.0 1014468
12:00+15зсз8833100 0.0 10132132
15:00+14зсз8113616 0.0 10112818
18:00+11зсз611401 0.0 10122135
21:00+7з613430 0.0 1014773
18 апреля, вс
вс1800:00+5з410625 0.0 1014541
03:00+5з510766 0.0 1014593
06:00+5з387522 0.0 1014322
09:00+9зсз58565 0.0 10151106
12:00+14зсз78350 0.0 10151964
15:00+16сз57280 0.0 10132171
18:00+14з69410 0.0 1014596
21:00+8зюз34580 0.0 101770
19 апреля, пн
пн1900:00+6зюз22700 0.0 101826
03:00+5зюз22740 0.0 101724
06:00+4зюз22780 0.0 101822
09:00+11зюз24490 0.0 1018587
12:00+19з68250 0.0 10161519
15:00+21зсз68225 0.0 10141840
18:00+18з48370 0.0 1015257
21:00+11зюз22580 0.0 101720
20 апреля, вт
вт2000:00+9зюз22680 0.0 101816
03:00+7зюз22747 0.0 101915
06:00+7зюз11775 0.0 102011
09:00+14зюз24490 0.0 1021490
12:00+22зсз45254 0.0 10201357
15:00+24сз44260 0.0 10181615
18:00+21зсз34400 0.0 101972
21:00+15зсз22510 0.0 102111
21 апреля, ср
ср2100:00+12ссз11591 0.0 102210
03:00+11зсз006560 0.0 102410
06:00+9ссв11735 0.0 102510
09:00+16вюв11554 0.0 1025338
12:00+23вюв12355 0.0 1023812
15:00+26ююв12255 0.0 10201404
18:00+24ссз0132100 0.0 101911
21:00+18юв1142100 0.0 102111